Terug naar catalogus

COSMOS 2251 DEB

ActiefLEO
NORAD 34758·DEBRIS·🇷🇺 Russia

Gelanceerd Jun 16, 1993 vanaf Plesetsk Cosmodrome

Loading…

Volgende Passages (komende 24 uur)

TLE

VersSource: Space-Track

Epoch: Sep 14, 2026, 07:56 UTC

1 34758U 93036AAC 26257.33100601  .00000411  00000-0  36392-3 0  9996
2 34758  74.1053 215.5997 0387383 275.7685  79.9394 13.58653489866529

Volg COSMOS 2251 DEB in realtime met AllMySat

Download on the App Store